Showing default

ASTROCAST-0401, 55110

Orbit data source: Space-Track

ASTROCAST-0401, 55110 is a payload satellite owned by Astrocast (CH) in SSO that was launched on Tue, 03 Jan 2023 UTC via an FALCON 9 launch vehicle from the Air Force Eastern Test Range (AFETR). Payload-class satellites include a variety of spacecraft equipped with specific instruments for various scientific and technological missions. These include communications satellites like Starlink; space stations such as the ISS; scientific satellites like the Hubble; Earth observation satellites from companies like Planet Labs, Umbra, and HawkEye 360; GPS; miniature CubeSats for education and research; and military/defense satellites.

Loading next visibility...
Identifier
55110, 2023-001DF
Orbit
SSO
Country
Flag of UnknownUnknown / SWTZ
Related business
Manufacturer
Astrocast
Mission
Operational Commercial Communications
Bus & Motor
CUBESAT 3U, Unknown motor
Mass
4.5 kg wet, 4.5 kg dry
Launch date (UTC)
2023-01-03 (3 years ago)
Launch vehicle
FALCON 9
Launch site
Air Force Eastern Test Range (AFETR)
Object type
Payload
Rocket body
Debris
Shape & HBR
Box, 0.1 m
Radar Cross Section
0.035 m², Medium (>0.1 m² and < 1m²)

Expand to show TLE details & history
Last TLE update: 9 hours ago

TLE from 9 hours ago
0 ASTROCAST-0401
1 55110U 23001DF  26035.20239182  .00009194  00000-0  36419-3 0  9990
2 55110  97.5597 126.6472 0007443 323.1108  36.9617 15.25622735170918
Epoch: 2026-02-04T04:51Z
TLE epoch observation values (Epoch: 2026-02-04T04:51:26.653Z)
Latitude
-0°
Longitude
-80.58621°
Altitude
487.926 km
Speed
7.623 km/s
True Right ascension
08h 26m 35s
True Declination
0° 00' 00"
Sunlit
Object was in full shadow at epoch
Visualization orbit readout
Latitude
Unknown
Longitude
Unknown
Altitude
Unknown
Speed
Unknown
Apparent Right ascension
Unknown
Apparent Declination
Unknown
Sunlit
N/A
Visualization observer readout
Local Sidereal Time
15:54:47
Azimuth
Unknown
Elevation
Unknown
Doppler factor
Unknown
Orbital elements
Apogee altitude
490.99 km
Perigee altitude
480.772 km
Semi-major axis
6,864.018 km
Eccentricity
0.00074
Inclination
97.5597°
RAAN
126.6472°
Arg. of periapsis
323.1108°
True anomaly
37.01302°
Mean anomaly
36.9617°
Eccentric anomaly
36.98736°
Mean motion
3.81659 °/min
Orbital period
94.33 mins
BSTAR
0.00036419
Loading maneuver chart data...
Computing Atmospheric mass density...
Loading historical data...
Loading historical data...
Loading historical data...
Loading historical data...
Loading historical data...
Loading historical data...
Loading historical data...

Documentation

Showing up to 5 results
|